[[{"header":{"parameterUnit":"m.s-1","parameterCategory":1,"la1":30.2991,"la2":30.254,"lo1":-89.0895,"lo2":-89.0444,"dy":0.0017,"dx":0.0017,"nx":28,"ny":28,"refTime":"2026-02-16T09:00:00:Z","depth":0,"parameterNumber":2,"parameterNumberName":"U-component_of_WINDS"},"data":[0,0,0,0,0,0,0,0,0,0,0,0,0,0,0,0,0,0,0,0,0,0,0,0,0,0,0,0,0,0,0,0,0,0,0,0,0,0,0,0,0,0,0,0,0,0,0,0,0,0,0,0,0,0,0,0,0,0,0.9741,0.9741,0,0.9745,0.9745,0.9745,0.9742,0.9742,0.9741,0.9741,0.9745,0.9745,0.9745,0,0,0,0,0,0,0,0,0,0,0,0,0,0.9731,0.9731,0.9741,0.9741,0.9742,0.9745,0.9745,0.9745,0.9742,0.9742,0.9741,0.9741,0.9745,0.9745,0.9745,0,0,0,0,0,0,0,0,0,0,0,0,0,0.9735,0.9731,0.9741,0.974,0.974,0.9745,0.9745,0.9745,0.9742,0.9742,0.9741,0.9741,0.9745,0.9745,0.9745,0.9752,0,0,0.9746,0.9746,0,0,0,0,0,0,0,0,0.9735,0.9736,0.974,0.974,0.974,0.9743,0.9743,0.9748,0.9742,0.9741,0.9741,0.9741,0.9744,0.9745,0.9746,0.9752,0.9752,0.9746,0.9747,0.9747,0.9747,0,0,0,0,0,0,0,0.9735,0.9735,0.9743,0.974,0.974,0.9739,0.974,0.9744,0.9744,0.9741,0.9741,0.9741,0.9744,0.9746,0.9746,0.9752,0.9746,0.9747,0.9747,0.9747,0.9765,0.9765,0,0,0,0,0,0,0.9734,0.9735,0.9743,0.9743,0.9737,0.974,0.974,0.9742,0.9744,0.9744,0.9742,0.9741,0.9745,0.9745,0.9746,0.9754,0.9747,0.9747,0.9747,0.9765,0.9765,0.9765,0,0,0,0,0,0,0.9734,0.9735,0.9743,0.9739,0.974,0.974,0.9742,0.9742,0.9744,0.9744,0.9744,0.9743,0.9745,0.9746,0.9751,0.9754,0.9747,0.9747,0.9764,0.9765,0.9765,0.977,0,0,0,0,0,0,0.9734,0.9735,0.9737,0.9739,0.974,0.9747,0.9743,0.9743,0.9744,0.9744,0.9745,0.9745,0.9745,0.975,0.9751,0.9755,0.9748,0.9764,0.9764,0.9765,0.977,0.9771,0.9772,0,0,0,0,0,0.9734,0.9738,0.9738,0.9739,0.9743,0.9747,0.9748,0.9747,0.9745,0.9747,0.9748,0.9745,0.9754,0.9751,0.9752,0.9755,0.9764,0.9764,0.9765,0.9769,0.9771,0.9772,0,0,0,0,0,0,0.9737,0.9739,0.9738,0.9743,0.9745,0.9747,0.975,0.9748,0.9751,0.975,0.9749,0.975,0.9755,0.9756,0.9752,0.9762,0.9758,0.9759,0.9761,0.9763,0.9764,0.9763,0.9748,0,0,0,0,0,0.9738,0.9742,0.9743,0.9748,0.9749,0.9749,0.9751,0.975,0.9752,0.9753,0.9754,0.9756,0.9759,0.9761,0.9764,0.977,0.9771,0.9773,0.9774,0.9775,0.9776,0.978,0.9781,0.9767,0.9767,0.9767,0,0,0.9741,0.9742,0.9744,0.9748,0.975,0.9754,0.975,0.9754,0.9756,0.9753,0.9758,0.9759,0.9761,0.9767,0.977,0.9768,0.978,0.9776,0.9776,0.9776,0.978,0.9782,0.9783,0.9768,0.9767,0.9767,0,0,0.9748,0.9749,0.9754,0.9755,0.9758,0.9758,0.9759,0.9761,0.9762,0.9767,0.9765,0.9769,0.9774,0.9776,0.9777,0.9786,0.9784,0.9787,0.9792,0.9796,0.9797,0.9798,0.9801,0.9803,0.9788,0.9788,0.9788,0,0.9751,0.9756,0.9756,0.976,0.9762,0.9761,0.9765,0.9767,0.977,0.9772,0.977,0.9777,0.9778,0.9785,0.9787,0.9788,0.979,0.9787,0.9797,0.9798,0.9799,0.9802,0.9803,0.9788,0.9788,0.9788,0.9788,0,0.976,0.9764,0.9767,0.9771,0.9773,0.9778,0.9778,0.9781,0.978,0.9781,0.9787,0.9788,0.9792,0.9794,0.9793,0.98,0.9799,0.9797,0.9793,0.98,0.9803,0.9805,0.9789,0.9789,0.9789,0.9788,0,0,0.9768,0.9772,0.9773,0.9775,0.9779,0.9782,0.9786,0.979,0.9792,0.9795,0.9799,0.9804,0.9803,0.9804,0.9804,0.9808,0.9815,0.9805,0.9805,0.9807,0.9824,0.9825,0.9827,0.9814,0.9814,0.9815,0.9824,0,0.9775,0.9783,0.9784,0.9791,0.9795,0.9794,0.9798,0.9801,0.9802,0.9805,0.9806,0.981,0.9808,0.9809,0.9812,0.9813,0.9818,0.9813,0.9818,0.9818,0.9817,0.9828,0.9829,0.9838,0.9825,0.9825,0.9825,0,0.9784,0.9787,0.9795,0.9799,0.98,0.9804,0.9808,0.9811,0.9815,0.9815,0.9818,0.9817,0.9822,0.9819,0.9826,0.9822,0.9825,0.9826,0.9826,0.9826,0.9822,0.9828,0.984,0.9842,0.9827,0.9827,0.9827,0,0.9789,0.9796,0.9802,0.9803,0.9807,0.981,0.9812,0.9815,0.9817,0.9821,0.9823,0.9827,0.9829,0.9832,0.9833,0.983,0.984,0.9837,0.9841,0.9841,0.9843,0.9842,0.9855,0.9845,0.9845,0.9845,0.9844,0,0.9797,0.9802,0.9804,0.9808,0.9813,0.9814,0.982,0.9821,0.9824,0.9828,0.9828,0.9832,0.9832,0.9836,0.9837,0.9843,0.9844,0.9845,0.9845,0.9845,0.9845,0.9846,0.9845,0.9845,0.9845,0.9845,0.9845,0,0.9803,0.9805,0.9811,0.9815,0.9816,0.982,0.9823,0.9827,0.9828,0.9834,0.9835,0.9837,0.9842,0.9843,0.9849,0.9849,0.9856,0.9856,0.9855,0.9855,0.986,0.9859,0.9873,0.9875,0.9864,0.9864,0.9864,0,0.9808,0.9812,0.9816,0.9819,0.9821,0.9826,0.9828,0.983,0.9833,0.9837,0.984,0.9845,0.9849,0.9857,0.9859,0.9864,0.9863,0.9868,0.9864,0.9864,0.9863,0.9863,0.9863,0.9868,0.9868,0.9869,0.9869,0,0.9816,0.9817,0.9821,0.9826,0.9829,0.9833,0.9837,0.9839,0.9841,0.9844,0.985,0.9853,0.9859,0.9864,0.9869,0.9871,0.987,0.987,0.9871,0.9871,0.987,0.9871,0.9857,0.987,0.9869,0.9869,0.9869,0.9869,0.9822,0.9825,0.9829,0.9834,0.9837,0.9841,0.9844,0.9847,0.9851,0.9856,0.9857,0.9863,0.9867,0.9873,0.9875,0.988,0.9879,0.988,0.9881,0.9881,0.9882,0.987,0.9881,0.9881,0.9881,0.9881,0.9881,0,0.983,0.9833,0.9837,0.9843,0.9847,0.9846,0.985,0.9854,0.9859,0.9863,0.9867,0.9873,0.9878,0.9881,0.9886,0.9889,0.9889,0.9891,0.989,0.9891,0.9882,0.9881,0.9891,0.9891,0.9891,0.9891,0.9891,0.9891,0.9835,0.9841,0.9843,0.985,0.9853,0.9859,0.9861,0.9865,0.9868,0.9875,0.9879,0.9881,0.9885,0.9891,0.9895,0.9896,0.9898,0.99,0.99,0.9892,0.9891,0.989,0.9889,0.99,0.99,0.9908,0.9908,0.9908]},{"header":{"parameterUnit":"m.s-1","parameterCategory":1,"la1":30.2991,"la2":30.254,"lo1":-89.0895,"lo2":-89.0444,"dy":0.0017,"dx":0.0017,"nx":28,"ny":28,"refTime":"2026-02-16T09:00:00:Z","depth":0,"parameterNumber":3,"parameterNumberName":"V-component_of_WINDS"},"data":[0,0,0,0,0,0,0,0,0,0,0,0,0,0,0,0,0,0,0,0,0,0,0,0,0,0,0,0,0,0,0,0,0,0,0,0,0,0,0,0,0,0,0,0,0,0,0,0,0,0,0,0,0,0,0,0,0,0,-5.4357,-5.4358,0,-5.4471,-5.4472,-5.4473,-5.4446,-5.4444,-5.4441,-5.4439,-5.4551,-5.4556,-5.4561,0,0,0,0,0,0,0,0,0,0,0,0,0,-5.4112,-5.4117,-5.4357,-5.4358,-5.436,-5.4471,-5.4472,-5.4474,-5.4446,-5.4443,-5.4441,-5.4438,-5.455,-5.4556,-5.4562,0,0,0,0,0,0,0,0,0,0,0,0,0,-5.4222,-5.4119,-5.4357,-5.4359,-5.4361,-5.447,-5.4472,-5.4474,-5.4447,-5.4443,-5.444,-5.4437,-5.4548,-5.4555,-5.4562,-5.4675,0,0,-5.4585,-5.4589,0,0,0,0,0,0,0,0,-5.4215,-5.4231,-5.4358,-5.4359,-5.4361,-5.4441,-5.4427,-5.4541,-5.4448,-5.4414,-5.4439,-5.4435,-5.4517,-5.4527,-5.4555,-5.468,-5.4685,-5.4586,-5.4591,-5.4594,-5.4596,0,0,0,0,0,0,0,-5.4208,-5.4226,-5.4402,-5.4359,-5.4362,-5.4354,-5.4366,-5.4449,-5.4482,-5.4417,-5.4415,-5.4429,-5.4517,-5.4548,-5.4558,-5.4686,-5.4586,-5.4593,-5.4597,-5.46,-5.4911,-5.4915,0,0,0,0,0,0,-5.4199,-5.4219,-5.4398,-5.4405,-5.4279,-5.4361,-5.4374,-5.4419,-5.4481,-5.4488,-5.4432,-5.4427,-5.4537,-5.4549,-5.4561,-5.4699,-5.4594,-5.4601,-5.4605,-5.4908,-5.4912,-5.4916,0,0,0,0,0,0,-5.4194,-5.4216,-5.4394,-5.4312,-5.4334,-5.4369,-5.4419,-5.4422,-5.4453,-5.4493,-5.4498,-5.4457,-5.4535,-5.4551,-5.4648,-5.4702,-5.4604,-5.4611,-5.4903,-5.4909,-5.4914,-5.4973,0,0,0,0,0,0,-5.4187,-5.4214,-5.4258,-5.4313,-5.4339,-5.4479,-5.4422,-5.4427,-5.4467,-5.4462,-5.4518,-5.4524,-5.4533,-5.4637,-5.4655,-5.4711,-5.4617,-5.4898,-5.4906,-5.4912,-5.4967,-5.498,-5.4992,0,0,0,0,0,-5.4179,-5.4268,-5.426,-5.4282,-5.4394,-5.4482,-5.4497,-5.4506,-5.4471,-5.4515,-5.4541,-5.4522,-5.4693,-5.4647,-5.4667,-5.4726,-5.4895,-5.4904,-5.4912,-5.4961,-5.4978,-5.4992,0,0,0,0,0,0,-5.4216,-5.4275,-5.4267,-5.4377,-5.4425,-5.4477,-5.4533,-5.4523,-5.4581,-5.4574,-5.4582,-5.4595,-5.4694,-5.472,-5.4667,-5.4839,-5.4789,-5.4802,-5.4819,-5.4835,-5.4848,-5.484,-5.4623,0,0,0,0,0,-5.4237,-5.4305,-5.4353,-5.4445,-5.447,-5.4498,-5.4536,-5.454,-5.4589,-5.4609,-5.4642,-5.4689,-5.4753,-5.4795,-5.4857,-5.497,-5.4982,-5.5021,-5.5033,-5.5043,-5.5055,-5.5118,-5.5136,-5.4944,-5.4944,-5.4943,0,0,-5.4281,-5.4322,-5.4364,-5.4454,-5.4492,-5.4561,-5.4515,-5.4589,-5.4641,-5.462,-5.4714,-5.474,-5.4793,-5.49,-5.4948,-5.4924,-5.5111,-5.5054,-5.5062,-5.5068,-5.5128,-5.5147,-5.5163,-5.4949,-5.4948,-5.4947,0,0,-5.4397,-5.4435,-5.4518,-5.4557,-5.4615,-5.4633,-5.4653,-5.4708,-5.4725,-5.482,-5.4806,-5.4867,-5.4977,-5.5017,-5.5051,-5.5185,-5.517,-5.5204,-5.527,-5.5332,-5.5347,-5.5361,-5.541,-5.5427,-5.5215,-5.5215,-5.5215,0,-5.4444,-5.455,-5.456,-5.4638,-5.4678,-5.4665,-5.4748,-5.4785,-5.486,-5.4888,-5.486,-5.5,-5.5035,-5.5151,-5.5184,-5.5212,-5.5235,-5.5198,-5.5344,-5.5358,-5.5371,-5.5417,-5.5436,-5.5219,-5.5219,-5.5218,-5.5218,0,-5.4606,-5.4679,-5.4738,-5.4814,-5.4861,-5.494,-5.4963,-5.5009,-5.5009,-5.503,-5.5128,-5.5169,-5.524,-5.5267,-5.5267,-5.5384,-5.5368,-5.5342,-5.5292,-5.5393,-5.5437,-5.5455,-5.5225,-5.5223,-5.5222,-5.5221,0,0,-5.4747,-5.4829,-5.4851,-5.4886,-5.495,-5.5007,-5.5086,-5.5157,-5.5197,-5.5249,-5.5317,-5.5412,-5.5389,-5.5429,-5.5433,-5.5487,-5.5592,-5.5455,-5.5456,-5.548,-5.5725,-5.5744,-5.5765,-5.5583,-5.5586,-5.5589,-5.5721,0,-5.487,-5.5012,-5.5025,-5.5152,-5.5221,-5.521,-5.5279,-5.5326,-5.5348,-5.5408,-5.5432,-5.55,-5.5464,-5.5488,-5.5541,-5.5568,-5.5641,-5.5558,-5.5645,-5.5648,-5.5633,-5.5788,-5.5808,-5.5931,-5.5738,-5.5741,-5.5743,0,-5.5032,-5.5092,-5.5227,-5.5284,-5.5313,-5.5376,-5.5443,-5.5501,-5.5554,-5.5566,-5.5612,-5.5609,-5.569,-5.5637,-5.575,-5.5694,-5.573,-5.5748,-5.5753,-5.5762,-5.5702,-5.5802,-5.597,-5.5989,-5.577,-5.5768,-5.5766,0,-5.5124,-5.5238,-5.5334,-5.5364,-5.5432,-5.5477,-5.5507,-5.5557,-5.56,-5.5658,-5.5686,-5.5752,-5.5788,-5.5839,-5.5855,-5.5814,-5.5967,-5.5915,-5.598,-5.5979,-5.6012,-5.601,-5.619,-5.6035,-5.6034,-5.6034,-5.6033,0,-5.526,-5.5343,-5.5377,-5.5436,-5.5529,-5.5543,-5.5634,-5.5662,-5.5707,-5.5771,-5.5764,-5.5824,-5.584,-5.5903,-5.5915,-5.6007,-5.6023,-5.6035,-5.6038,-5.6037,-5.6035,-5.6061,-5.6053,-5.6039,-5.6038,-5.6037,-5.6036,0,-5.5378,-5.5403,-5.5508,-5.5565,-5.5582,-5.5648,-5.5696,-5.5753,-5.5775,-5.5856,-5.5876,-5.5909,-5.5983,-5.6004,-5.6091,-5.6099,-5.6208,-5.6202,-5.6191,-5.6192,-5.6256,-5.625,-5.6458,-5.6487,-5.6312,-5.6314,-5.6315,0,-5.5464,-5.5528,-5.5593,-5.5637,-5.567,-5.5739,-5.5784,-5.58,-5.5846,-5.5913,-5.5962,-5.6035,-5.6095,-5.6213,-5.6244,-5.6312,-5.6308,-5.6376,-5.6318,-5.6315,-5.631,-5.6307,-5.6314,-5.6387,-5.6389,-5.6391,-5.6392,0,-5.5614,-5.5624,-5.5689,-5.5759,-5.5813,-5.5869,-5.5922,-5.5957,-5.5981,-5.6033,-5.611,-5.6157,-5.6248,-5.6321,-5.639,-5.6419,-5.641,-5.641,-5.6429,-5.6429,-5.642,-5.6427,-5.6223,-5.6405,-5.6404,-5.6403,-5.6402,-5.6402,-5.5719,-5.5776,-5.5832,-5.5905,-5.5948,-5.5998,-5.6055,-5.6085,-5.615,-5.6227,-5.6232,-5.6316,-5.6368,-5.646,-5.6494,-5.6559,-5.6538,-5.6565,-5.6572,-5.6579,-5.6585,-5.641,-5.6571,-5.6571,-5.657,-5.657,-5.657,0,-5.587,-5.5906,-5.5973,-5.6049,-5.6107,-5.6095,-5.6154,-5.6203,-5.6277,-5.6328,-5.6388,-5.6476,-5.6548,-5.6586,-5.6657,-5.6702,-5.6699,-5.672,-5.6717,-5.6724,-5.6599,-5.6576,-5.6721,-5.6721,-5.6721,-5.6721,-5.6721,-5.6721,-5.5955,-5.6052,-5.6069,-5.6188,-5.6223,-5.6306,-5.6341,-5.6388,-5.6429,-5.6529,-5.6589,-5.6614,-5.666,-5.6735,-5.68,-5.6809,-5.6836,-5.6859,-5.6866,-5.6748,-5.6733,-5.6718,-5.6697,-5.6865,-5.6865,-5.6987,-5.6988,-5.6989]}]]